SCP
0 0 0 0 0 0 0 0 0 0 0 0 0 0 0 0 0 0 0 0 -0 -0 -0 -0 -0 -0 -0 -0 -0 -0 -0 -0 -0 -0 -0 -0 -0 -0 -0 -0 -0 -0 -0 -0 -0 -0 -0 0 0
0 0 0 0 0 0 0 0 0 0 0 0 0 0 0 0 0 0 0 -0 -0 -0 -0 -0 -0 -0 -0 -0 -0 -0 -0 -0 -0 -0 -0 -0 -0 0 0 -0 0 -0 -0 -0 -0 -0 -0 -0 0
0 0 0 0 0 0 0 0 0 0 0 0 0 0 0 0 0 0 0 -0 -0 -0 -0 -0 -0 -0 -0 -0 -0 -0 -0 -0 -0 -0 -0 -0 -0 0 -0 -0 -0 -0 -0 -0 -0 0 0 0 0
0 0 0 0 0 0 0 0 0 0 0 0 0 0 0 0 0 0 0 0 0 0 -0 -0 -0 -0 -0 -0 -0 -0 -0 -0 -0 -0 -0 -0 -0 -0 -0 0 0 -0 0 0 0 0 0 0 0
0 0 0 0 0 0 0 0 0 0 0 0 0 0 0 0 0 0 0 0 0 0 0 0 -0 -0 -0 -0 -0 -0 -0 -0 -0 -0 -0 -0 -0 -0 0 0 0 0 0 0 0 0 0 0 0
0 0 0 0 0 0 0 0 0 0 0 0 0 0 0 0 0 0 0 0 0 0 0 0 0 -0 -0 -0 -0 -0 -0 -0 -0 -0 -0 -0 -0 -0 0 0 0 0 0 0 0 0 0 0 0
0 0 0 0 0 0 0 0 0 0 0 0 0 0 0 0 0 0 0 0 0 0 0 0 0 0 0 0 -0 -0 -0 -0 -0 -0 -0 -0 -0 0 0 0 0 0 0 0 0 0 0 0 0
0 0 0 0 0 0 0 0 0 0 0 0 0 0 0 0 0 0 0 0 0 0 0 0 0 0 0 0 0 0 0 0 0 0 -0 -0 -0 0 0 0 0 0 0 0 0 0 0 0 0
0 0 0 0 0 0 0 0 0 0 0 0 0 0 0 0 0 0 0 0 0 0 0 0 -0 0 0 0 0 0 0 0 0 0 0 0 0 0 0 0 0 0 0 0 0 0 0 0 0
0 0 0 0 0 0 0 0 0 0 0 0 0 0 0 0 0 0 0 0 0 0 0 0 0 0 0 0 0 0 0 0 0 0 0 0 0 0 0 0 0 0 0 0 0 0 0 0 0
0 0 0 0 0 0 0 0 0 0 0 0 0 0 0 0 0 0 0 0 0 0 0 0 0 0 0 0 0 0 0 0 0 0 0 0 0 0 0 0 0 0 0 0 0 0 0 0 0
0 0 0 0 0 0 0 0 0 0 0 0 0 0 0 0 0 0 0 0 0 0 0 0 0 0 0 0 0 0 0 0 0 0 0 0 0 0 0 0 0 0 0 0 0 0 0 0 0
0 0 0 0 0 0 0 0 0 0 0 0 0 0 0 0 0 0 0 0 0 0 0 0 0 0 0 0 0 0 0 0 0 0 0 0 0 0 0 0 0 0 0 0 0 0 0 0 0
0 0 0 0 0 0 0 0 0 0 0 0 0 0 0 0 0 0 0 0 0 0 0 0 0 0 0 0 0 0 0 0 0 0 0 0 0 0 0 0 0 0 0 0 0 0 0 0 0
0 0 0 0 0 0 0 0 0 0 0 0 0 0 0 0 0 0 0 0 0 0 0 0 0 0 0 0 0 0 0 0 0 0 0 0 0 0 0 0 0 0 0 0 0 0 0 0 0
0 0 0 0 0 0 0 0 0 0 0 0 0 0 0 0 0 0 0 0 0 0 0 0 0 0 0 0 0 0 0 0 0 0 0 0 0 0 0 0 0 0 0 0 0 0 0 0 0
0 0 0 0 0 0 0 0 0 0 0 0 0 0 0 0 0 0 0 0 0 0 0 0 0 0 0 0 0 0 0 0 0 0 0 0 0 0 0 0 0 0 0 0 0 0 0 0 0
0 0 0 0 0 0 0 0 0 0 0 0 0 0 0 0 0 0 0 0 0 0 0 0 0 0 0 0 0 0 0 0 0 0 0 0 0 0 0 0 0 0 0 0 0 0 0 0 0
0 0 0 0 0 0 0 0 0 0 0 0 0 0 0 0 0 0 0 0 0 0 0 0 0 0 0 0 0 0 0 0 0 0 0 0 0 0 0 0 0 0 0 0 0 0 0 0 0
0 0 0 0 0 0 0 0 0 0 0 0 0 0 0 0 0 0 0 0 0 0 0 0 0 0 0 0 0 0 0 0 0 0 0 0 0 0 0 0 0 0 0 0 0 0 0 0 0
0 0 0 0 0 0 0 -0 0 0 0 0 0 0 0 0 0 0 0 0 0 0 0 0 0 0 0 0 0 0 0 0 0 0 0 0 0 0 0 0 0 0 0 0 0 0 0 0 0
0 0 0 0 0 0 0 0 0 0 0 0 0 0 0 0 0 0 0 0 0 0 0 0 0 0 0 0 0 0 0 0 0 0 0 0 0 0 0 0 0 0 0 0 0 0 0 0 0
0 0 0 0 0 0 0 0 -0 0 0 0 0 0 0 0 0 0 0 0 0 0 0 0 0 0 0 0 0 0 0 0 0 0 0 0 0 0 0 0 0 0 0 0 0 0 0 0 0
0 0 0 0 0 0 -0 0 0 0 0 0 0 0 0 0 0 0 0 0 0 0 0 0 0 0 0 0 0 0 0 0 0 0 0 0 0 0 0 0 0 0 0 0 0 0 0 0 0
0 0 0 0 0 0 -0 -0 0 0 0 0 0 0 0 0 0 0 0 0 0 0 0 0 0 0 0 0 0 0 0 0 0 0 0 0 0 0 0 0 0 0 0 0 0 0 0 0 0
0 0 0 0 0 0 0 0 0 0 0 0 0 0 0 0 0 0 0 0 0 0 0 0 0 0 0 0 0 0 0 0 0 0 0 0 0 0 0 0 0 0 0 0 0 0 0 0 0
0 0 0 0 0 0 -0 0 0 0 0 0 0 0 0 0 0 0 0 0 0 0 0 0 0 0 0 0 0 0 0 0 0 0 0 0 0 0 0 0 0 0 0 0 0 0 0 0 0
0 0 0 0 0 0 0 -0 -0 0 0 0 0 0 0 0 0 0 0 0 0 0 0 0 0 0 0 0 0 0 0 0 0 0 0 0 0 0 0 0 0 0 0 0 0 0 0 0 0
0 0 0 0 0 0 0 0 0 0 0 0 0 0 0 -0 0 0 0 0 0 0 0 0 0 0 0 0 0 0 0 0 0 0 0 0 0 0 0 0 0 0 0 0 0 0 0 0 0
0 0 0 0 0 0 0 0 0 0 0 0 0 0 0 -0 0 0 0 0 0 0 0 0 0 0 0 0 0 0 0 0 0 0 0 0 0 0 0 0 0 0 0 0 0 0 0 0 0
Wind_Speed_500mb
9 7 7 8 8 9 1 4 5 7 6 8 18 23 19 22 6 6 47 22 26 24 23 17 12 5 14 18 19 16 17 20 22 25 27 27 26 23 23 21 24 27 25 25 26 28 29 28 29
12 10 9 8 10 6 6 4 9 4 29 38 34 24 17 11 17 29 37 30 24 20 22 20 11 6 11 18 18 17 18 19 21 24 27 27 25 23 21 22 24 25 22 26 29 30 30 29 27
13 13 8 9 8 8 7 4 7 13 35 7 14 22 11 13 28 23 34 32 16 15 18 19 9 3 13 18 16 15 17 18 20 24 28 28 26 23 22 23 24 23 27 28 29 29 27 25 24
11 9 12 8 8 3 6 8 15 19 15 14 32 15 16 16 21 26 33 24 21 18 16 14 8 4 13 17 16 14 14 17 21 24 27 28 23 18 18 21 23 25 27 27 25 27 26 24 22
10 7 9 9 7 5 1 2 7 8 9 7 9 11 12 21 25 32 29 23 22 22 15 10 7 2 9 16 16 12 14 15 20 24 25 24 22 16 18 21 22 22 24 27 27 26 24 23 24
5 5 9 8 8 3 5 10 14 15 19 20 29 24 13 36 32 34 29 28 19 15 12 11 6 7 10 16 17 11 13 17 20 22 21 22 20 17 11 15 18 21 20 23 23 24 24 26 25
11 7 7 10 11 4 4 9 9 11 11 8 18 12 30 42 37 34 28 24 19 16 13 9 8 10 13 17 13 12 15 18 20 24 24 20 17 15 10 9 12 15 20 18 19 22 25 25 25
12 8 6 3 8 6 2 9 18 12 5 22 28 12 22 49 41 36 30 27 21 18 14 11 9 16 16 10 9 12 16 19 21 22 22 20 16 13 10 7 6 10 14 17 17 20 23 23 23
14 8 6 9 8 8 4 9 9 10 20 6 12 30 39 50 45 39 38 30 24 19 15 13 16 12 8 7 8 10 13 17 19 20 20 18 15 12 9 6 3 7 11 14 14 17 21 24 23
13 6 9 4 1 6 6 11 15 9 11 8 20 32 53 49 44 42 37 30 26 21 16 12 12 10 8 6 5 8 12 15 16 17 18 18 15 11 6 6 4 9 10 12 14 16 18 21 26
5 5 7 4 8 8 11 9 7 27 2 16 43 55 51 53 49 43 37 25 23 21 18 14 14 11 10 6 6 8 11 14 16 18 17 16 15 11 6 2 5 9 11 12 14 17 19 24 28
10 10 5 6 5 8 7 15 10 3 4 29 45 54 47 44 51 47 37 28 26 23 20 16 14 11 10 9 9 10 13 15 17 17 15 12 10 8 5 2 9 13 14 15 15 19 23 25 29
8 4 10 15 14 16 13 10 8 8 18 36 45 49 46 45 42 38 35 34 30 26 23 19 16 14 13 14 13 13 14 16 17 17 15 12 9 5 4 6 11 16 16 18 20 24 26 23 23
8 18 11 8 11 10 7 5 3 14 26 38 46 45 45 47 44 43 41 40 33 29 26 22 21 20 17 19 18 17 17 19 19 19 18 14 9 3 3 3 10 16 16 21 24 29 28 21 19
12 10 6 10 7 7 7 2 10 15 30 36 39 46 47 49 48 48 45 43 34 33 30 28 28 25 22 21 23 21 21 20 19 21 20 14 8 3 4 5 6 9 13 19 27 32 26 19 19
9 8 4 4 3 4 7 12 5 21 36 41 42 45 48 51 54 51 47 44 40 41 39 39 35 30 28 26 24 24 27 24 23 23 17 14 8 5 5 4 5 5 9 12 26 32 30 23 20
9 5 1 4 6 5 3 9 8 24 33 39 43 46 51 55 57 56 54 50 49 49 47 44 40 34 33 31 29 27 27 27 26 23 16 12 8 6 4 5 3 1 5 10 26 33 32 29 24
8 7 0 5 2 3 2 18 1 21 32 42 46 49 53 59 64 58 57 54 51 48 47 46 45 41 37 36 34 33 32 30 30 20 15 12 10 8 8 7 7 7 9 13 25 38 37 34 30
11 8 4 5 4 3 12 15 19 27 41 49 56 60 64 67 60 56 58 56 56 55 53 51 48 48 45 42 39 37 32 28 28 19 17 15 12 12 13 12 11 10 11 15 25 45 44 41 37
11 9 1 5 4 3 11 19 25 26 39 59 68 73 75 69 65 59 59 59 57 54 54 57 54 53 48 43 39 37 31 32 33 25 19 17 16 15 15 14 11 9 12 16 25 46 53 48 44
6 5 2 3 6 1 13 15 10 10 44 52 75 80 75 76 73 69 64 62 56 55 54 54 53 54 52 45 46 43 39 38 40 33 24 21 19 18 15 12 11 10 13 16 23 39 58 55 49
4 4 3 5 8 4 8 11 12 8 15 17 48 59 73 75 78 73 68 64 60 56 53 51 53 56 56 52 51 48 44 41 40 39 29 26 23 20 18 15 14 13 16 20 22 29 50 56 52
4 7 5 3 4 6 7 1 16 7 13 16 29 52 65 78 83 79 73 68 61 55 53 51 53 57 57 55 53 49 45 45 44 37 33 29 26 23 21 19 18 17 18 20 23 27 36 49 56
5 8 13 8 5 4 7 8 12 6 8 11 8 18 30 49 62 70 69 68 64 57 54 54 56 56 56 56 56 53 52 50 46 40 34 32 30 25 23 23 20 19 18 19 21 23 26 30 34
11 10 5 9 7 8 3 6 18 20 23 14 27 50 37 32 41 52 63 68 67 64 60 59 58 57 57 58 59 57 53 50 47 45 39 33 31 26 25 23 21 20 20 20 20 21 20 21 22
9 11 8 9 5 7 5 11 13 14 14 24 24 28 31 31 34 41 49 56 63 63 62 59 58 57 58 60 59 58 54 55 54 50 41 35 33 29 29 27 26 23 22 20 18 20 20 20 19
8 7 8 4 1 1 9 13 18 13 15 18 31 26 28 30 31 37 41 45 54 60 61 58 58 57 58 57 59 60 57 56 54 50 46 41 38 36 33 32 31 29 27 24 23 21 20 18 17
10 12 5 3 5 10 9 9 13 13 13 18 18 19 23 25 28 31 33 36 41 51 55 57 57 57 54 57 60 60 58 58 57 54 50 46 42 40 38 37 35 34 30 28 27 26 24 22 21
5 6 4 7 9 7 7 10 12 11 8 12 25 27 35 44 30 25 26 28 34 44 52 56 57 59 59 60 61 62 59 57 56 53 51 48 46 43 42 42 39 36 34 33 33 31 27 25 23
6 5 11 8 10 8 5 24 8 16 15 18 44 48 46 34 23 21 19 22 31 44 51 56 58 62 62 62 64 64 61 59 57 56 54 52 49 46 46 45 44 42 38 37 36 34 30 28 25
Wind_Direction_500mb
220 213 121 123 71 65 100 117 313 108 71 61 102 113 101 55 72 156 143 136 171 166 165 175 161 79 21 15 13 25 23 19 15 11 7 6 6 10 15 32 42 54 49 39 32 32 34 40 51
202 174 118 95 88 82 274 286 120 124 137 98 82 90 48 75 97 123 154 153 163 165 167 165 156 71 12 5 15 19 18 19 12 13 8 8 8 16 37 48 62 62 53 43 39 37 42 49 56
171 150 98 91 104 148 159 67 89 122 148 110 110 83 81 99 119 132 152 156 155 171 167 163 146 84 355 8 14 15 18 13 14 16 13 9 11 27 41 63 67 62 54 47 46 42 48 52 55
153 96 69 85 125 19 142 153 123 128 95 84 113 70 88 132 144 148 144 150 154 147 156 168 163 27 2 351 0 1 22 8 10 17 14 10 14 40 58 68 62 59 55 48 48 50 49 45 46
121 94 66 90 88 145 352 99 135 97 90 81 120 102 83 125 144 151 151 148 158 158 170 178 188 312 333 330 340 352 5 7 11 13 14 10 8 26 76 70 66 57 54 48 53 53 51 46 49
73 78 78 130 110 187 69 74 105 89 109 102 109 106 103 134 153 155 156 155 168 172 180 188 230 280 308 311 326 344 356 0 9 5 12 6 7 14 77 92 71 61 54 53 63 53 52 51 47
110 75 136 119 140 72 93 69 67 101 105 76 126 106 139 154 163 162 163 173 185 188 195 205 247 285 289 297 313 340 351 356 3 1 360 10 21 24 39 74 81 70 63 62 66 58 50 51 54
92 89 87 67 178 167 44 98 101 88 101 123 137 144 160 170 170 173 177 189 192 193 201 221 256 271 286 296 317 345 349 355 359 6 358 6 16 16 25 44 61 70 73 70 70 63 58 57 62
78 69 145 166 159 161 157 114 71 96 124 82 163 153 166 165 173 177 178 182 189 194 206 234 265 271 278 300 327 347 351 358 358 360 357 2 359 359 8 24 97 93 87 78 76 77 60 65 68
62 87 164 135 195 162 90 104 122 127 119 83 127 152 162 170 176 183 186 189 196 199 214 229 258 278 261 272 314 343 351 356 354 351 348 346 348 346 348 22 148 120 109 97 92 97 74 69 70
42 115 161 84 110 130 118 93 116 130 181 184 161 154 170 181 179 190 191 194 200 200 208 219 247 260 254 267 304 335 341 345 347 345 344 346 351 357 351 29 156 142 130 116 102 105 91 81 79
101 61 111 133 91 99 93 124 92 103 241 168 167 166 170 180 193 192 193 202 203 206 216 226 245 267 264 274 294 316 325 332 338 340 340 339 342 345 3 96 162 157 143 127 115 117 105 97 93
77 108 78 104 97 88 122 74 141 125 143 163 172 177 183 182 187 199 202 206 213 216 217 231 242 264 274 276 287 298 308 317 324 333 329 323 330 356 53 99 151 160 149 136 124 125 114 106 101
104 99 91 68 84 83 106 114 93 177 163 168 183 184 191 194 203 205 207 206 209 220 225 234 245 256 266 281 288 291 297 304 315 323 321 312 309 345 53 97 136 163 156 146 137 132 119 112 103
97 78 57 44 22 54 94 310 239 186 180 185 192 198 202 211 215 223 230 229 226 231 234 240 244 250 256 273 285 292 290 294 304 314 316 311 314 339 42 40 79 111 154 153 151 144 145 137 119
68 59 82 352 120 49 77 274 260 190 186 197 201 205 206 215 218 224 224 227 230 234 235 236 239 248 260 265 270 284 288 290 297 307 302 304 316 346 350 19 13 78 134 150 162 156 160 155 146
39 134 176 309 205 109 141 264 353 197 202 210 211 213 215 218 219 221 224 226 232 234 232 233 236 246 252 259 270 277 281 285 290 295 291 294 303 312 278 279 298 276 190 160 168 164 168 171 163
155 118 290 262 352 71 231 266 269 210 217 228 228 228 228 229 230 229 229 228 230 233 236 238 239 242 245 252 257 265 275 281 282 279 277 276 277 280 285 283 276 262 211 186 170 171 175 179 171
103 75 53 301 357 184 245 264 269 226 224 236 236 236 236 236 238 238 241 238 238 239 237 232 232 238 239 246 254 251 266 283 290 280 269 267 263 269 275 279 263 255 225 202 183 179 185 180 169
71 90 347 287 4 187 313 273 258 213 220 226 233 234 236 239 240 237 239 240 240 241 240 235 231 231 237 243 249 252 268 273 279 283 262 263 261 265 267 267 268 244 225 208 191 184 187 192 179
51 112 212 198 350 54 327 281 265 274 232 231 237 244 244 240 239 236 237 240 240 239 236 232 226 223 232 236 241 246 252 260 269 280 261 257 261 262 259 253 243 219 209 199 189 189 195 199 193
49 315 80 79 44 299 37 292 302 302 285 239 247 246 245 247 245 243 240 240 241 240 234 229 226 225 229 232 240 245 254 264 265 273 258 254 255 257 256 246 232 214 198 200 198 190 196 203 207
198 47 78 105 72 24 345 34 274 346 300 272 252 252 255 253 249 246 241 241 243 239 236 231 227 227 228 234 240 242 247 257 260 261 248 251 251 255 256 243 231 214 208 209 206 201 197 207 214
100 52 39 49 61 11 249 145 282 241 231 307 286 304 277 259 253 248 244 240 238 236 235 233 230 231 232 235 237 237 250 250 249 248 249 244 248 253 252 241 230 224 221 218 213 204 204 207 212
77 71 338 359 5 236 154 211 257 274 263 232 272 295 296 279 255 249 242 236 233 234 235 234 234 234 235 237 239 243 244 246 243 248 250 245 247 250 246 238 230 231 227 216 210 212 212 202 197
169 152 162 237 225 267 102 241 244 225 270 290 274 280 293 292 262 254 250 242 236 235 237 239 240 240 240 239 242 245 244 242 244 248 252 247 244 243 240 234 224 219 216 217 222 224 208 199 200
181 167 176 53 74 8 229 288 298 325 316 297 277 277 284 292 282 261 252 249 245 241 241 245 246 245 244 246 246 246 246 246 249 251 252 243 242 238 234 228 221 213 209 213 219 214 210 218 219
161 161 93 21 259 258 274 272 242 294 324 328 330 318 319 307 292 272 258 252 249 247 247 248 251 251 250 248 248 248 248 246 247 248 246 242 241 237 231 227 220 213 211 216 214 210 217 224 226
134 189 150 161 173 227 312 262 218 234 274 272 292 307 319 316 294 287 272 265 260 256 252 252 253 254 251 248 247 248 247 246 247 247 244 243 243 241 233 225 221 215 217 214 208 212 217 224 225
325 268 166 176 233 233 256 262 210 243 268 294 294 306 310 309 294 285 277 269 268 265 257 256 255 254 253 253 250 247 247 246 246 246 245 243 243 240 232 226 221 220 218 215 212 216 220 221 223
Wind_Speed_850mb
9 7 7 8 8 9 1 4 5 7 6 8 18 23 19 22 6 6 47 22 26 24 23 17 12 5 14 18 19 16 17 20 22 25 27 27 26 23 23 21 24 27 25 25 26 28 29 28 29
12 10 9 8 10 6 6 4 9 4 29 38 34 24 17 11 17 29 37 30 24 20 22 20 11 6 11 18 18 17 18 19 21 24 27 27 25 23 21 22 24 25 22 26 29 30 30 29 27
13 13 8 9 8 8 7 4 7 13 35 7 14 22 11 13 28 23 34 32 16 15 18 19 9 3 13 18 16 15 17 18 20 24 28 28 26 23 22 23 24 23 27 28 29 29 27 25 24
11 9 12 8 8 3 6 8 15 19 15 14 32 15 16 16 21 26 33 24 21 18 16 14 8 4 13 17 16 14 14 17 21 24 27 28 23 18 18 21 23 25 27 27 25 27 26 24 22
10 7 9 9 7 5 1 2 7 8 9 7 9 11 12 21 25 32 29 23 22 22 15 10 7 2 9 16 16 12 14 15 20 24 25 24 22 16 18 21 22 22 24 27 27 26 24 23 24
5 5 9 8 8 3 5 10 14 15 19 20 29 24 13 36 32 34 29 28 19 15 12 11 6 7 10 16 17 11 13 17 20 22 21 22 20 17 11 15 18 21 20 23 23 24 24 26 25
11 7 7 10 11 4 4 9 9 11 11 8 18 12 30 42 37 34 28 24 19 16 13 9 8 10 13 17 13 12 15 18 20 24 24 20 17 15 10 9 12 15 20 18 19 22 25 25 25
12 8 6 3 8 6 2 9 18 12 5 22 28 12 22 49 41 36 30 27 21 18 14 11 9 16 16 10 9 12 16 19 21 22 22 20 16 13 10 7 6 10 14 17 17 20 23 23 23
14 8 6 9 8 8 4 9 9 10 20 6 12 30 39 50 45 39 38 30 24 19 15 13 16 12 8 7 8 10 13 17 19 20 20 18 15 12 9 6 3 7 11 14 14 17 21 24 23
13 6 9 4 1 6 6 11 15 9 11 8 20 32 53 49 44 42 37 30 26 21 16 12 12 10 8 6 5 8 12 15 16 17 18 18 15 11 6 6 4 9 10 12 14 16 18 21 26
5 5 7 4 8 8 11 9 7 27 2 16 43 55 51 53 49 43 37 25 23 21 18 14 14 11 10 6 6 8 11 14 16 18 17 16 15 11 6 2 5 9 11 12 14 17 19 24 28
10 10 5 6 5 8 7 15 10 3 4 29 45 54 47 44 51 47 37 28 26 23 20 16 14 11 10 9 9 10 13 15 17 17 15 12 10 8 5 2 9 13 14 15 15 19 23 25 29
8 4 10 15 14 16 13 10 8 8 18 36 45 49 46 45 42 38 35 34 30 26 23 19 16 14 13 14 13 13 14 16 17 17 15 12 9 5 4 6 11 16 16 18 20 24 26 23 23
8 18 11 8 11 10 7 5 3 14 26 38 46 45 45 47 44 43 41 40 33 29 26 22 21 20 17 19 18 17 17 19 19 19 18 14 9 3 3 3 10 16 16 21 24 29 28 21 19
12 10 6 10 7 7 7 2 10 15 30 36 39 46 47 49 48 48 45 43 34 33 30 28 28 25 22 21 23 21 21 20 19 21 20 14 8 3 4 5 6 9 13 19 27 32 26 19 19
9 8 4 4 3 4 7 12 5 21 36 41 42 45 48 51 54 51 47 44 40 41 39 39 35 30 28 26 24 24 27 24 23 23 17 14 8 5 5 4 5 5 9 12 26 32 30 23 20
9 5 1 4 6 5 3 9 8 24 33 39 43 46 51 55 57 56 54 50 49 49 47 44 40 34 33 31 29 27 27 27 26 23 16 12 8 6 4 5 3 1 5 10 26 33 32 29 24
8 7 0 5 2 3 2 18 1 21 32 42 46 49 53 59 64 58 57 54 51 48 47 46 45 41 37 36 34 33 32 30 30 20 15 12 10 8 8 7 7 7 9 13 25 38 37 34 30
11 8 4 5 4 3 12 15 19 27 41 49 56 60 64 67 60 56 58 56 56 55 53 51 48 48 45 42 39 37 32 28 28 19 17 15 12 12 13 12 11 10 11 15 25 45 44 41 37
11 9 1 5 4 3 11 19 25 26 39 59 68 73 75 69 65 59 59 59 57 54 54 57 54 53 48 43 39 37 31 32 33 25 19 17 16 15 15 14 11 9 12 16 25 46 53 48 44
6 5 2 3 6 1 13 15 10 10 44 52 75 80 75 76 73 69 64 62 56 55 54 54 53 54 52 45 46 43 39 38 40 33 24 21 19 18 15 12 11 10 13 16 23 39 58 55 49
4 4 3 5 8 4 8 11 12 8 15 17 48 59 73 75 78 73 68 64 60 56 53 51 53 56 56 52 51 48 44 41 40 39 29 26 23 20 18 15 14 13 16 20 22 29 50 56 52
4 7 5 3 4 6 7 1 16 7 13 16 29 52 65 78 83 79 73 68 61 55 53 51 53 57 57 55 53 49 45 45 44 37 33 29 26 23 21 19 18 17 18 20 23 27 36 49 56
5 8 13 8 5 4 7 8 12 6 8 11 8 18 30 49 62 70 69 68 64 57 54 54 56 56 56 56 56 53 52 50 46 40 34 32 30 25 23 23 20 19 18 19 21 23 26 30 34
11 10 5 9 7 8 3 6 18 20 23 14 27 50 37 32 41 52 63 68 67 64 60 59 58 57 57 58 59 57 53 50 47 45 39 33 31 26 25 23 21 20 20 20 20 21 20 21 22
9 11 8 9 5 7 5 11 13 14 14 24 24 28 31 31 34 41 49 56 63 63 62 59 58 57 58 60 59 58 54 55 54 50 41 35 33 29 29 27 26 23 22 20 18 20 20 20 19
8 7 8 4 1 1 9 13 18 13 15 18 31 26 28 30 31 37 41 45 54 60 61 58 58 57 58 57 59 60 57 56 54 50 46 41 38 36 33 32 31 29 27 24 23 21 20 18 17
10 12 5 3 5 10 9 9 13 13 13 18 18 19 23 25 28 31 33 36 41 51 55 57 57 57 54 57 60 60 58 58 57 54 50 46 42 40 38 37 35 34 30 28 27 26 24 22 21
5 6 4 7 9 7 7 10 12 11 8 12 25 27 35 44 30 25 26 28 34 44 52 56 57 59 59 60 61 62 59 57 56 53 51 48 46 43 42 42 39 36 34 33 33 31 27 25 23
6 5 11 8 10 8 5 24 8 16 15 18 44 48 46 34 23 21 19 22 31 44 51 56 58 62 62 62 64 64 61 59 57 56 54 52 49 46 46 45 44 42 38 37 36 34 30 28 25
Wind_Direction_850mb
220 213 121 123 71 65 100 117 313 108 71 61 102 113 101 55 72 156 143 136 171 166 165 175 161 79 21 15 13 25 23 19 15 11 7 6 6 10 15 32 42 54 49 39 32 32 34 40 51
202 174 118 95 88 82 274 286 120 124 137 98 82 90 48 75 97 123 154 153 163 165 167 165 156 71 12 5 15 19 18 19 12 13 8 8 8 16 37 48 62 62 53 43 39 37 42 49 56
171 150 98 91 104 148 159 67 89 122 148 110 110 83 81 99 119 132 152 156 155 171 167 163 146 84 355 8 14 15 18 13 14 16 13 9 11 27 41 63 67 62 54 47 46 42 48 52 55
153 96 69 85 125 19 142 153 123 128 95 84 113 70 88 132 144 148 144 150 154 147 156 168 163 27 2 351 0 1 22 8 10 17 14 10 14 40 58 68 62 59 55 48 48 50 49 45 46
121 94 66 90 88 145 352 99 135 97 90 81 120 102 83 125 144 151 151 148 158 158 170 178 188 312 333 330 340 352 5 7 11 13 14 10 8 26 76 70 66 57 54 48 53 53 51 46 49
73 78 78 130 110 187 69 74 105 89 109 102 109 106 103 134 153 155 156 155 168 172 180 188 230 280 308 311 326 344 356 0 9 5 12 6 7 14 77 92 71 61 54 53 63 53 52 51 47
110 75 136 119 140 72 93 69 67 101 105 76 126 106 139 154 163 162 163 173 185 188 195 205 247 285 289 297 313 340 351 356 3 1 360 10 21 24 39 74 81 70 63 62 66 58 50 51 54
92 89 87 67 178 167 44 98 101 88 101 123 137 144 160 170 170 173 177 189 192 193 201 221 256 271 286 296 317 345 349 355 359 6 358 6 16 16 25 44 61 70 73 70 70 63 58 57 62
78 69 145 166 159 161 157 114 71 96 124 82 163 153 166 165 173 177 178 182 189 194 206 234 265 271 278 300 327 347 351 358 358 360 357 2 359 359 8 24 97 93 87 78 76 77 60 65 68
62 87 164 135 195 162 90 104 122 127 119 83 127 152 162 170 176 183 186 189 196 199 214 229 258 278 261 272 314 343 351 356 354 351 348 346 348 346 348 22 148 120 109 97 92 97 74 69 70
42 115 161 84 110 130 118 93 116 130 181 184 161 154 170 181 179 190 191 194 200 200 208 219 247 260 254 267 304 335 341 345 347 345 344 346 351 357 351 29 156 142 130 116 102 105 91 81 79
101 61 111 133 91 99 93 124 92 103 241 168 167 166 170 180 193 192 193 202 203 206 216 226 245 267 264 274 294 316 325 332 338 340 340 339 342 345 3 96 162 157 143 127 115 117 105 97 93
77 108 78 104 97 88 122 74 141 125 143 163 172 177 183 182 187 199 202 206 213 216 217 231 242 264 274 276 287 298 308 317 324 333 329 323 330 356 53 99 151 160 149 136 124 125 114 106 101
104 99 91 68 84 83 106 114 93 177 163 168 183 184 191 194 203 205 207 206 209 220 225 234 245 256 266 281 288 291 297 304 315 323 321 312 309 345 53 97 136 163 156 146 137 132 119 112 103
97 78 57 44 22 54 94 310 239 186 180 185 192 198 202 211 215 223 230 229 226 231 234 240 244 250 256 273 285 292 290 294 304 314 316 311 314 339 42 40 79 111 154 153 151 144 145 137 119
68 59 82 352 120 49 77 274 260 190 186 197 201 205 206 215 218 224 224 227 230 234 235 236 239 248 260 265 270 284 288 290 297 307 302 304 316 346 350 19 13 78 134 150 162 156 160 155 146
39 134 176 309 205 109 141 264 353 197 202 210 211 213 215 218 219 221 224 226 232 234 232 233 236 246 252 259 270 277 281 285 290 295 291 294 303 312 278 279 298 276 190 160 168 164 168 171 163
155 118 290 262 352 71 231 266 269 210 217 228 228 228 228 229 230 229 229 228 230 233 236 238 239 242 245 252 257 265 275 281 282 279 277 276 277 280 285 283 276 262 211 186 170 171 175 179 171
103 75 53 301 357 184 245 264 269 226 224 236 236 236 236 236 238 238 241 238 238 239 237 232 232 238 239 246 254 251 266 283 290 280 269 267 263 269 275 279 263 255 225 202 183 179 185 180 169
71 90 347 287 4 187 313 273 258 213 220 226 233 234 236 239 240 237 239 240 240 241 240 235 231 231 237 243 249 252 268 273 279 283 262 263 261 265 267 267 268 244 225 208 191 184 187 192 179
51 112 212 198 350 54 327 281 265 274 232 231 237 244 244 240 239 236 237 240 240 239 236 232 226 223 232 236 241 246 252 260 269 280 261 257 261 262 259 253 243 219 209 199 189 189 195 199 193
49 315 80 79 44 299 37 292 302 302 285 239 247 246 245 247 245 243 240 240 241 240 234 229 226 225 229 232 240 245 254 264 265 273 258 254 255 257 256 246 232 214 198 200 198 190 196 203 207
198 47 78 105 72 24 345 34 274 346 300 272 252 252 255 253 249 246 241 241 243 239 236 231 227 227 228 234 240 242 247 257 260 261 248 251 251 255 256 243 231 214 208 209 206 201 197 207 214
100 52 39 49 61 11 249 145 282 241 231 307 286 304 277 259 253 248 244 240 238 236 235 233 230 231 232 235 237 237 250 250 249 248 249 244 248 253 252 241 230 224 221 218 213 204 204 207 212
77 71 338 359 5 236 154 211 257 274 263 232 272 295 296 279 255 249 242 236 233 234 235 234 234 234 235 237 239 243 244 246 243 248 250 245 247 250 246 238 230 231 227 216 210 212 212 202 197
169 152 162 237 225 267 102 241 244 225 270 290 274 280 293 292 262 254 250 242 236 235 237 239 240 240 240 239 242 245 244 242 244 248 252 247 244 243 240 234 224 219 216 217 222 224 208 199 200
181 167 176 53 74 8 229 288 298 325 316 297 277 277 284 292 282 261 252 249 245 241 241 245 246 245 244 246 246 246 246 246 249 251 252 243 242 238 234 228 221 213 209 213 219 214 210 218 219
161 161 93 21 259 258 274 272 242 294 324 328 330 318 319 307 292 272 258 252 249 247 247 248 251 251 250 248 248 248 248 246 247 248 246 242 241 237 231 227 220 213 211 216 214 210 217 224 226
134 189 150 161 173 227 312 262 218 234 274 272 292 307 319 316 294 287 272 265 260 256 252 252 253 254 251 248 247 248 247 246 247 247 244 243 243 241 233 225 221 215 217 214 208 212 217 224 225
325 268 166 176 233 233 256 262 210 243 268 294 294 306 310 309 294 285 277 269 268 265 257 256 255 254 253 253 250 247 247 246 246 246 245 243 243 240 232 226 221 220 218 215 212 216 220 221 223